Location: Richmond
(37.5540°N, 77.4610°W)
Time: 16:43:17
(UTC-04:00)

ISS - Visible Passes

Search period start: 23 May 2018 00:00
Search period end: 02 June 2018 00:00
Orbit: 402 x 407 km, 51.6° (Epoch: 24 May)

Date Brightness Start Highest point End Pass type
(mag) Time Alt. Az. Time Alt. Az. Time Alt. Az.
23 May -0.6 02:28:10 10° NNW 02:30:05 15° NNE 02:32:00 10° ENE visible
23 May -3.9 04:03:42 10° NW 04:06:58 89° NE 04:10:13 10° SE visible
23 May -3.9 20:42:01 10° SW 20:45:17 82° SE 20:48:33 10° NE visible
23 May -0.6 22:20:05 10° WNW 22:22:08 15° NNW 22:24:11 10° NNE visible
24 May -0.2 01:36:49 10° N 01:37:36 11° NNE 01:37:42 11° NNE visible
24 May -1.1 21:27:02 10° W 21:29:43 23° NNW 21:32:24 10° NNE visible
25 May -0.1 22:14:22 10° NNW 22:14:36 10° NNW 22:14:51 10° NNW visible
26 May -0.6 21:20:19 10° NW 21:22:04 14° NNW 21:23:50 10° N visible
27 May -0.3 00:36:15 10° N 00:36:52 11° N 00:36:52 11° N visible
29 May -0.5 00:27:28 10° NNW 00:28:06 13° NNW 00:28:06 13° NNW visible
29 May -0.8 23:35:43 10° N 23:37:23 13° NNE 23:37:28 13° NNE visible
31 May -0.6 00:18:58 10° NW 00:19:30 14° NNW 00:19:30 14° NNW visible
31 May -1.4 23:26:58 10° NNW 23:28:55 21° N 23:28:55 21° N visible
01 Jun -1.2 22:35:07 10° NNW 22:37:06 15° NNE 22:38:21 13° NE visible
